Theta_e
291 291 291 289 289 289 289 289 289 289 288 287 288 288 288 288 288 288 287 287 286 286 285 284 283 283 282 282 282 281 281 282 282 285 279 279 280 280 284 283 283 283 284
291 290 290 289 288 288 288 289 289 288 287 288 287 287 287 287 287 287 286 286 285 285 284 284 283 282 281 281 281 280 280 280 281 279 280 281 280 279 279 280 282 283 282
290 290 289 289 288 288 289 289 288 288 287 287 287 287 286 287 286 286 286 286 285 285 285 284 283 281 281 280 280 280 280 279 280 279 281 280 281 278 281 281 281 282 283
290 290 289 289 289 289 289 288 287 288 287 286 287 287 287 286 286 286 286 285 285 285 285 284 283 282 281 280 279 280 280 280 279 279 280 280 280 280 277 278 279 281 280
290 289 290 290 289 289 288 287 287 287 287 287 286 286 286 286 286 286 286 285 285 284 284 284 284 282 283 282 280 280 280 280 280 280 280 279 280 279 278 278 277 278 279
290 290 290 289 288 288 288 287 286 286 286 286 286 286 285 286 288 288 287 285 285 284 284 284 284 282 281 284 284 283 282 280 280 280 280 278 279 277 277 277 276 276 276
290 290 290 289 288 287 287 286 286 285 285 285 285 285 285 286 288 290 288 286 285 285 285 284 283 282 281 282 285 284 283 284 283 282 280 279 279 279 278 277 276 276 277
290 290 290 288 288 287 286 286 286 285 285 285 285 285 286 286 289 290 288 286 285 285 285 284 284 282 282 281 282 282 281 282 283 283 281 282 280 280 278 278 278 278 279
290 290 289 288 287 286 286 286 286 285 284 285 285 285 285 285 289 290 289 285 284 284 284 284 284 283 283 283 280 280 280 280 282 284 284 284 285 286 283 280 279 278 277
289 289 289 288 287 286 286 286 285 285 285 285 284 285 285 285 288 290 289 285 283 283 283 283 283 283 284 285 280 280 279 280 280 280 280 281 282 281 281 280 279 277 276
286 287 287 287 286 287 286 285 284 284 284 283 283 284 284 285 285 290 290 285 284 283 283 283 283 285 285 285 284 282 282 283 282 281 281 281 281 281 280 280 279 278 277
284 285 285 284 286 285 284 284 283 283 282 282 282 282 283 283 284 289 290 287 287 284 283 283 284 286 286 286 285 285 285 285 282 281 281 281 280 279 279 278 278 278 278
281 280 280 280 282 282 282 281 281 281 281 281 281 281 281 282 283 288 290 288 287 284 284 284 285 286 286 286 286 286 284 283 282 281 280 280 279 279 277 277 277 274 273
278 279 279 279 279 278 282 282 283 282 281 281 281 280 280 281 282 285 287 287 285 284 285 285 285 285 285 285 284 285 283 283 282 281 280 279 278 277 277 275 278 278 277
282 281 280 278 277 278 280 282 282 283 283 282 282 282 281 280 282 285 287 285 284 284 284 284 283 283 282 282 282 283 282 282 281 280 279 279 278 278 276 275 277 278 276
283 283 282 282 281 281 281 282 285 285 285 286 286 285 284 285 285 287 287 286 286 286 283 282 281 282 281 281 281 280 280 280 280 280 279 278 279 279 277 277 277 276 275
282 283 283 281 281 281 281 281 281 284 286 286 286 286 285 285 286 287 287 287 287 286 282 282 281 281 281 281 281 280 279 280 280 279 279 278 277 278 277 276 277 277 276
282 282 281 279 275 276 277 278 281 282 282 283 285 285 286 286 287 287 287 287 285 285 283 282 281 281 281 280 280 279 279 278 279 279 279 279 279 279 277 277 277 276 275
280 281 278 275 273 275 276 281 280 277 278 281 283 285 285 287 287 287 288 284 283 282 282 281 281 281 280 280 280 280 279 280 280 280 279 279 279 279 278 279 278 276 275
282 283 281 276 278 278 276 275 276 279 279 281 282 283 284 284 283 283 283 284 282 281 281 280 280 280 280 280 280 279 279 279 279 279 278 278 278 278 278 278 276 275 274
272 273 272 272 274 272 272 273 274 275 276 279 282 284 285 282 281 281 281 281 281 280 280 279 279 279 279 279 278 277 277 277 277 276 276 277 277 276 276 276 275 275 274
271 271 273 273 273 274 275 277 275 274 277 278 281 282 283 282 281 280 280 279 279 279 279 279 278 278 278 279 279 277 276 275 275 274 276 276 275 276 276 275 274 274 274
273 273 273 278 279 279 280 279 278 278 277 277 278 278 278 278 279 278 278 277 277 277 277 278 277 275 275 276 277 277 275 274 275 274 272 274 277 276 276 275 274 274 274
268 269 269 268 269 271 274 274 274 274 275 275 276 275 277 277 277 277 276 276 277 277 276 276 276 274 273 273 273 272 271 271 271 273 274 275 276 276 276 276 274 273 274
266 267 267 267 267 267 268 268 269 271 274 277 278 276 273 274 274 274 274 274 275 276 276 275 275 276 275 275 272 269 267 268 269 267 272 274 274 270 266 268 270 273 274
263 264 263 263 264 264 264 265 266 268 272 275 275 273 273 273 273 273 272 271 272 272 272 272 272 273 273 272 270 267 267 267 265 263 267 268 268 269 267 271 269 271 271
Wind_Speed
10 10 11 10 10 9 10 10 11 9 9 10 9 9 9 9 9 9 9 8 9 8 7 8 8 6 5 5 4 3 4 3 3 1 2 1 3 3 4 4 3 4 5
8 8 10 8 9 10 12 12 10 11 9 10 10 10 9 10 10 11 10 9 10 10 9 9 8 6 7 6 5 6 4 4 3 4 1 2 3 2 3 4 3 3 4
7 9 9 10 10 13 12 10 9 10 10 9 9 10 11 11 11 10 10 10 10 10 10 10 8 8 8 6 6 6 4 3 2 2 2 1 2 1 3 2 3 4 2
6 8 10 11 11 11 10 10 10 10 10 10 11 11 10 10 10 10 10 10 10 9 9 9 9 9 8 8 6 6 4 4 3 2 2 2 2 0 1 2 5 3 3
7 8 11 9 8 8 9 10 10 10 10 10 9 9 9 9 8 11 11 11 10 9 8 8 8 8 11 9 5 6 6 4 3 3 2 1 2 1 1 1 2 5 2
7 9 6 6 6 8 8 8 8 9 9 9 10 10 10 8 15 19 14 10 10 10 9 8 7 7 8 12 12 12 10 6 4 3 2 3 2 1 1 2 2 3 4
5 5 5 6 8 9 8 8 9 10 9 11 11 11 12 12 19 20 19 9 10 10 9 8 7 5 7 6 11 9 10 11 6 4 3 4 2 3 1 2 1 1 2
4 5 5 6 8 6 7 10 9 8 11 11 11 12 11 10 19 20 20 10 8 8 8 8 8 8 8 8 7 6 6 4 5 3 5 3 4 3 4 2 1 3 5
6 6 5 6 7 6 8 9 8 7 8 10 8 10 12 10 18 19 16 9 7 7 7 7 8 8 11 14 7 7 6 5 5 8 8 9 9 8 6 2 2 2 1
8 8 6 5 6 7 8 7 5 6 8 6 9 10 12 10 16 19 17 7 8 7 7 7 10 8 12 15 7 6 5 3 3 3 1 1 1 2 0 3 2 2 1
9 8 6 5 6 6 5 4 4 6 4 6 8 7 9 11 13 23 23 10 9 8 7 6 6 14 14 15 12 6 4 3 3 2 1 1 0 1 1 1 1 2 2
9 8 7 6 4 3 4 4 3 4 5 5 5 4 5 6 10 19 23 19 16 9 9 7 7 16 14 14 11 10 9 7 3 3 2 2 2 1 1 2 2 0 2
7 6 6 6 4 2 2 2 2 3 4 4 4 5 4 4 5 16 20 19 17 8 6 10 14 14 14 11 14 13 9 4 4 3 3 3 2 1 1 3 1 3 2
6 7 6 5 5 3 1 2 3 3 4 4 5 5 3 3 5 6 8 9 11 8 12 9 11 12 12 11 8 8 5 5 4 3 3 3 3 1 2 1 1 2 2
5 4 4 3 3 3 2 2 3 3 4 4 5 4 5 5 6 8 10 8 8 10 10 8 7 8 8 6 5 6 5 4 4 4 3 4 3 3 2 1 1 2 3
7 5 5 4 3 3 3 1 4 6 8 10 8 6 3 6 14 16 18 19 20 22 7 7 7 8 7 6 6 5 3 5 4 3 3 4 3 3 4 2 1 2 3
6 6 5 4 4 4 2 2 1 3 1 5 7 9 10 12 18 21 21 21 22 21 6 7 6 6 5 6 5 5 4 4 4 4 4 4 4 4 4 2 3 2 3
4 5 3 3 2 2 2 2 1 1 0 0 4 4 9 14 16 19 21 18 10 10 3 5 5 5 5 5 5 4 4 4 3 5 5 5 4 4 4 4 3 2 2
4 4 3 3 3 2 1 1 1 2 2 2 2 1 1 9 11 14 16 3 6 5 4 3 4 4 5 5 4 4 5 5 5 5 5 4 4 3 3 3 3 2 1
3 6 4 2 3 3 3 3 3 2 2 3 3 2 2 3 3 2 2 3 4 4 3 4 4 4 4 5 5 5 4 4 5 4 5 4 3 2 2 3 2 1 0
3 4 5 3 3 2 2 3 3 3 3 3 4 5 10 5 4 4 3 3 3 3 4 4 4 4 4 5 5 5 5 5 3 4 4 5 5 3 2 2 1 1 1
3 3 4 4 3 4 4 3 4 3 3 3 4 6 10 4 4 3 3 3 3 3 3 5 4 4 4 5 5 5 5 5 4 4 4 4 3 3 3 3 2 2 3
4 4 5 4 4 5 5 5 5 4 4 4 4 4 4 3 3 3 3 3 2 2 2 3 4 3 2 3 3 4 5 5 5 5 4 4 4 3 3 3 3 3 5
3 3 3 2 2 2 3 3 3 4 3 3 3 3 3 2 2 2 3 3 3 3 3 3 3 6 5 4 3 3 3 3 4 5 6 4 4 5 4 4 4 5 5
3 2 2 1 1 1 1 2 2 3 3 3 1 1 1 1 1 1 1 1 2 3 4 4 3 5 5 6 5 5 4 4 4 4 3 3 6 5 3 2 3 2 7
3 2 1 2 3 2 1 3 3 3 4 4 4 5 5 5 4 3 3 3 3 2 2 2 3 4 5 4 5 5 5 5 5 5 4 3 4 5 3 6 7 4 6
Wind_Direction
199 202 207 205 203 201 210 216 214 207 199 202 202 201 202 198 194 199 206 200 207 206 202 203 206 191 191 189 186 192 200 192 209 273 256 287 288 316 323 335 332 341 336
198 197 209 205 198 208 217 219 209 212 200 201 197 200 198 197 192 199 200 197 201 204 204 204 210 190 197 191 193 199 201 200 185 234 295 290 248 325 299 312 328 324 331
193 204 207 209 205 217 222 221 207 209 204 195 194 202 201 199 195 198 198 196 201 205 201 203 203 192 199 192 196 197 200 190 187 204 282 266 286 1 321 299 310 314 318
207 212 221 220 219 222 221 212 207 206 203 198 203 205 203 197 196 194 194 197 201 206 203 204 198 196 199 194 196 197 182 187 183 214 241 271 270 323 279 322 332 317 335
216 220 230 226 218 214 211 210 210 202 209 204 200 202 197 193 197 193 193 197 199 203 205 205 205 198 198 193 182 183 179 194 197 215 233 251 250 282 310 339 282 314 312
224 236 236 219 214 223 224 216 207 210 203 196 202 201 198 204 206 201 193 195 195 198 203 203 197 190 206 204 202 198 192 182 187 188 196 230 252 242 260 298 329 1 337
251 250 236 219 220 217 212 206 214 211 197 206 204 196 205 207 203 201 197 194 194 200 196 188 190 194 185 192 208 206 212 205 203 169 197 209 233 206 245 297 26 281 264
283 266 243 228 237 223 210 216 216 206 206 207 208 207 208 211 204 200 194 192 196 197 192 187 186 181 189 183 174 194 220 190 217 186 209 234 235 208 230 230 222 284 275
328 300 269 232 236 216 225 229 225 209 202 208 207 207 208 211 201 197 186 187 191 191 183 185 182 179 191 190 174 186 201 212 218 222 225 245 248 252 239 181 250 294 306
332 308 290 262 240 233 232 222 213 215 228 216 211 200 201 208 198 195 185 175 181 181 178 179 182 177 182 188 178 183 185 195 174 175 149 165 32 297 342 207 193 238 279
315 309 302 283 256 243 236 203 204 205 203 209 220 216 211 200 191 191 187 181 185 179 175 175 178 186 184 184 178 183 160 130 142 135 192 163 135 219 125 114 173 190 163
317 320 323 314 284 254 220 223 198 186 202 210 209 203 208 203 203 200 193 192 179 172 180 175 171 181 178 178 167 176 170 184 174 174 186 187 178 168 74 64 69 263 258
324 326 329 328 320 284 200 188 187 191 187 198 204 216 215 204 205 201 198 192 182 171 155 153 149 161 166 174 176 180 192 167 165 180 188 178 182 131 118 134 95 91 85
325 333 333 341 337 331 257 187 208 207 211 210 211 219 208 188 192 190 187 169 152 122 131 135 153 161 166 169 178 189 166 175 178 176 163 146 135 145 117 54 90 74 79
320 319 330 332 335 318 271 225 219 227 215 217 223 209 189 206 207 187 164 149 139 148 142 153 164 169 174 175 168 165 166 151 155 158 153 152 156 152 111 141 85 72 86
333 338 340 333 335 323 312 309 237 242 250 240 237 201 188 187 175 171 154 157 159 162 162 173 180 181 177 169 171 164 145 160 161 155 146 151 162 161 133 128 145 134 125
338 336 337 337 332 331 327 299 345 27 86 212 203 194 174 167 171 170 167 173 174 170 186 185 179 172 164 164 161 151 154 164 148 153 153 150 146 138 134 159 160 131 78
342 339 330 325 321 331 327 322 331 329 23 104 177 184 194 188 183 178 177 175 183 186 159 166 157 150 149 150 145 137 140 143 151 153 144 155 156 148 158 169 137 104 76
347 343 348 348 340 347 15 352 308 19 7 350 12 54 276 207 197 191 183 169 167 149 133 122 124 135 135 135 140 147 149 158 154 149 147 150 144 156 177 157 119 109 148
3 10 24 20 17 19 24 36 18 22 65 70 51 43 74 102 125 126 88 118 107 109 114 127 124 120 124 133 135 132 135 143 143 143 143 130 136 162 165 109 98 156 240
10 15 20 26 30 39 60 44 28 26 31 51 65 71 81 81 88 96 99 93 106 120 121 121 127 129 137 136 136 141 144 152 153 143 144 155 159 145 123 101 121 170 221
39 38 40 38 21 29 23 39 47 38 22 18 48 63 80 78 93 102 109 110 114 119 130 135 140 147 150 154 152 147 152 155 162 160 158 155 166 141 158 153 187 217 247
41 39 30 42 44 45 48 48 42 39 38 39 36 27 38 53 62 68 71 69 81 92 88 101 117 118 116 117 134 148 153 167 170 152 155 169 156 165 186 205 213 243 254
44 57 66 35 24 51 82 88 91 85 87 70 53 36 36 48 74 105 112 121 118 111 100 108 119 131 119 118 121 113 127 145 154 173 164 169 179 192 203 215 221 236 256
53 24 22 45 98 107 86 80 116 130 132 125 126 63 60 74 91 118 132 141 125 126 124 129 129 141 148 156 162 172 172 161 167 174 177 205 227 235 207 207 222 231 268
2 16 342 339 319 308 256 219 216 198 211 205 182 181 178 179 181 178 170 167 167 173 161 143 147 163 178 179 181 176 179 177 179 181 169 195 214 230 230 235 252 233 254